Location: Kalundborg
(55.6921°N, 11.1537°E)
Time: 05:07:39
(UTC+01:00)

ISS - Visible Passes

Search period start: 22 February 2019 00:00
Search period end: 04 March 2019 00:00
Orbit: 403 x 411 km, 51.6° (Epoch: 22 February)

Date Brightness Start Highest point End Pass type
(mag) Time Alt. Az. Time Alt. Az. Time Alt. Az.
25 Feb -1.0 06:28:52 10° S 06:30:53 15° SSE 06:32:54 10° ESE visible
26 Feb -0.8 05:38:49 10° SSE 05:39:40 11° SE 05:40:31 10° SE visible
27 Feb -1.7 06:21:27 10° SSW 06:24:07 23° SSE 06:26:47 10° ESE visible
28 Feb -1.4 05:30:32 10° SSW 05:32:49 18° SSE 05:35:05 10° ESE visible
01 Mar -1.2 04:41:01 12° SSE 04:41:32 13° SE 04:43:04 10° ESE visible
01 Mar -2.3 06:14:25 10° SW 06:17:23 31° SSE 06:20:20 10° E visible
02 Mar -2.1 05:24:17 17° SSW 05:25:59 26° SSE 05:28:46 10° E visible
03 Mar -1.8 04:34:47 20° SSE 04:34:47 20° SSE 04:37:06 10° ESE visible
03 Mar -2.8 06:07:33 10° WSW 06:10:38 38° S 06:13:43 10° ESE visible
